TimeCDT,TemperatureF,Dew PointF,Humidity,Sea Level PressureIn,VisibilityMPH,Wind Direction,Wind SpeedMPH,Gust SpeedMPH,PrecipitationIn,Events,Conditions,WindDirDegrees,DateUTC
12:53 AM,73.9,68.0,82,30.16,10.0,SSW,5.8,-,N/A,,Clear,210,2013-07-16 05:53:00
1:53 AM,75.0,66.0,73,30.17,10.0,SW,8.1,-,N/A,,Clear,230,2013-07-16 06:53:00
2:53 AM,72.0,66.0,81,30.16,10.0,WNW,3.5,-,N/A,,Clear,290,2013-07-16 07:53:00
3:53 AM,71.1,66.9,87,30.16,10.0,Calm,Calm,-,N/A,,Clear,0,2013-07-16 08:53:00
4:53 AM,69.1,66.0,90,30.17,10.0,Calm,Calm,-,N/A,,Clear,0,2013-07-16 09:53:00
5:53 AM,68.0,64.9,90,30.18,10.0,ESE,3.5,-,N/A,,Clear,120,2013-07-16 10:53:00
6:53 AM,68.0,66.0,93,30.20,7.0,Calm,Calm,-,N/A,,Clear,0,2013-07-16 11:53:00
7:53 AM,73.0,68.0,84,30.22,9.0,Calm,Calm,-,N/A,,Clear,0,2013-07-16 12:53:00
8:53 AM,79.0,70.0,74,30.23,10.0,Calm,Calm,-,N/A,,Clear,0,2013-07-16 13:53:00
9:53 AM,81.0,66.0,60,30.24,10.0,Calm,Calm,-,N/A,,Clear,0,2013-07-16 14:53:00
10:53 AM,84.0,64.9,53,30.24,10.0,Calm,Calm,-,N/A,,Clear,0,2013-07-16 15:53:00
11:53 AM,86.0,66.9,53,30.24,10.0,East,4.6,-,N/A,,Clear,80,2013-07-16 16:53:00
12:53 PM,87.1,68.0,53,30.23,10.0,Calm,Calm,-,N/A,,Clear,0,2013-07-16 17:53:00
1:53 PM,88.0,69.1,53,30.22,10.0,East,5.8,-,N/A,,Partly Cloudy,80,2013-07-16 18:53:00
2:53 PM,89.1,70.0,53,30.21,10.0,ENE,6.9,-,N/A,,Partly Cloudy,60,2013-07-16 19:53:00
3:53 PM,89.1,69.1,52,30.19,10.0,Calm,Calm,-,N/A,,Partly Cloudy,0,2013-07-16 20:53:00
4:53 PM,86.0,70.0,59,30.19,10.0,SE,8.1,-,N/A,,Scattered Clouds,130,2013-07-16 21:53:00
5:53 PM,89.1,70.0,53,30.19,10.0,East,4.6,-,N/A,,Partly Cloudy,100,2013-07-16 22:53:00
6:53 PM,88.0,72.0,59,30.19,10.0,East,3.5,-,N/A,,Clear,100,2013-07-16 23:53:00
7:53 PM,86.0,73.9,67,30.19,10.0,Calm,Calm,-,N/A,,Clear,0,2013-07-17 00:53:00
8:53 PM,82.9,73.0,72,30.19,6.0,Calm,Calm,-,N/A,,Haze,0,2013-07-17 01:53:00
9:53 PM,81.0,73.0,77,30.21,10.0,Calm,Calm,-,N/A,,Clear,0,2013-07-17 02:53:00
10:53 PM,77.0,73.0,88,30.22,10.0,Calm,Calm,-,N/A,,Clear,0,2013-07-17 03:53:00
11:53 PM,77.0,73.0,88,30.23,10.0,SE,4.6,-,N/A,,Clear,140,2013-07-17 04:53:00